Zurück zum Katalog

SL-16 DEB

AktivLEO
NORAD 16392·DEBRIS·🇷🇺 Russia

Gestartet Oct 22, 1985 von Baikonur Cosmodrome

Loading…

Nächste Überflüge (nächste 24 Stunden)

TLE

AktuellSource: Space-Track

Epoche: Sep 14, 2026, 07:54 UTC

1 16392U 85097F   26257.32937410  .00000016  00000-0  53713-4 0  9991
2 16392  70.9716  22.5292 0200449 189.6667 199.4289 13.75058121 50401

Verfolge SL-16 DEB in Echtzeit mit AllMySat

Download on the App Store